National Weather Service Hourly Weather Roundup
NOAA NWS Hourly Roundups by Site
NOAA NWS Hourly Roundups by Site
Regional Weather Roundup for Sacramento, CA

To Select Another Site Choose from List

Select Site:  

000
ASUS46 KSTO 242204
RWRCA

NORTHERN AND CENTRAL CA REGIONAL WEATHER ROUNDUP
NATIONAL WEATHER SERVICE SACRAMENTO CA
300 PM PDT SAT SEP 24 2022

NOTE: FAIR INDICATES FEW OR NO CLOUDS BELOW 12,000 FEET WITH NO
SIGNIFICANT WEATHER AND/OR OBSTRUCTIONS TO VISIBILITY.

CAZ001-003-242300-
NORTHWEST AREA

CITY           SKY/WX    TMP DP  RH WIND       PRES   REMARKS
CRESCENT CITY  SUNNY     72  55  55 VRB3      30.06F
UKIAH          SUNNY     92  45  19 E3        30.00F
$$

CAZ006-505>513-242300-
BAY AREA

CITY           SKY/WX    TMP DP  RH WIND       PRES   REMARKS
SANTA ROSA     SUNNY     91  39  16 CALM      29.99F
SAN RAFAEL     N/A       87  MM  MM MISG
NAPA           SUNNY     90  53  28 SW9       29.99F
CONCORD        SUNNY     93  41  16 N7        29.98F
OAKLAND CITY   N/A       80  MM  MM MISG
OAKLAND        SUNNY     79  60  52 NW13      30.00F
SAN FRAN CITY  N/A       70  MM  59 MISG
SAN FRAN ARPT  MOSUNNY   81  57  43 NW17G24   29.99F
LIVERMORE      SUNNY     93  45  19 VRB3      29.98F
HAYWARD        SUNNY     86  56  35 W12       29.98F
REDWOOD CITY   N/A       87  MM  40 MISG
MOFFETT ARPT   SUNNY     82  57  42 NW12      29.98F
SAN JOSE ARPT  SUNNY     89  48  24 NW14      29.98F
$$
CAZ034-037-514>518-242300-
CENTRAL COAST

CITY           SKY/WX    TMP DP  RH WIND       PRES   REMARKS
WATSONVILLE    MOSUNNY   66  58  75 W8        30.05S
SALINAS        SUNNY     71  57  61 NW15      30.02F
MONTEREY       SUNNY     69  56  62 W13       30.03F
SAN LUIS OBISP SUNNY     75  58  55 NW12      30.02F
SANTA MARIA    SUNNY     70  59  68 NW8       30.04F
HALF MOON BAY  FOG       61  61 100 S8        30.05S VSB 1/2
$$
CAZ015-016-242300-
NORTHERN SACRAMENTO VALLEY

CITY           SKY/WX    TMP DP  RH WIND       PRES   REMARKS
REDDING        SUNNY     97  30   9 SW7       29.98F HX  91
RED BLUFF      SUNNY     94  43  17 VRB5      29.99F HX  90
OROVILLE       SUNNY     91  52  26 VRB3      30.01F
$$
CAZ016>018-242300-
SOUTHERN SACRAMENTO VALLEY

CITY           SKY/WX    TMP DP  RH WIND       PRES   REMARKS
AUBURN         SUNNY     90  46  22 VRB6G12   30.06F
LINCOLN        FAIR      91  50  24 W5        29.98F
MARYSVILLE     SUNNY     91  52  26 VRB3      29.99F
SAC INTL ARPT  SUNNY     94  45  18 NW9       29.98F HX  90
MATHER AIRPORT SUNNY     91  45  19 NW7       29.97F
DOWNTOWN SAC   N/A       94  MM  MM MISG
SAC EXEC ARPT  SUNNY     94  43  17 NW13      29.98F HX  90
VACAVILLE      SUNNY     94  50  22 CALM      30.00F HX  91
TRAVIS AFB     SUNNY     97  47  18 N5        29.98F HX  93
$$
CAZ019>021-242300-
SAN JOAQUIN VALLEY

CITY           SKY/WX    TMP DP  RH WIND       PRES   REMARKS
STOCKTON       SUNNY     95  47  19 NW9       29.97F HX  91
MODESTO        SUNNY     92  45  19 NW9       29.97F
MERCED         SUNNY     95  40  14 N8        29.96F HX  91
LEMOORE        MOSUNNY   95  50  21 NW8       29.96F HX  92
FRESNO         MOSUNNY   94  53  25 W5        29.97F HX  91
HANFORD        SUNNY     96  48  19 NW8       29.96F HX  92
PORTERVILLE    SUNNY     93  53  25 N7        29.97F HX  90
BAKERSFIELD    SUNNY     91  53  27 W10       29.96F
$$
CAZ011-012-071-242300-
NORTHERN MOUNTAINS

CITY           SKY/WX    TMP DP  RH WIND       PRES   REMARKS
YREKA          SUNNY     86  35  16 CALM      30.15F
MOUNT SHASTA   SUNNY     85  29  13 CALM      30.18F
ALTURAS        SUNNY     81  28  14 SE7       30.24F
$$
CAZ011-012-071-242300-
SIERRA NEVADA MTNS

CITY           SKY/WX    TMP DP  RH WIND       PRES   REMARKS
BLUE CANYON    SUNNY     75  38  26 S8G16     30.30F
TRUCKEE        SUNNY     75  34  22 CALM      30.32F
TAHOE VLY ARPT SUNNY     72  35  25 N7        30.33F
$$


 

View Past Reports for Sacramento, CA.

Products Courtesy of NOAA-NWS
NWS Information Parsing Script by Ken True at Saratoga Weather - Script by SE Lincoln Weather.

powered by Cumulus v1.9.3 (1059)
Ambient Weather VWS v14.00
Weather-Display (10.37S-(b58))
Virtual VP software
Top Website Map Copyright © 2007 - 2022 Foresthillweather.com Never base important decisions on this or any weather information obtained from the Internet